User: anonymous   Login
Location: ?????
(37.7324°N, 23.9257°E)
Time: 16:21:07
(UTC+00:00)
Language:

SJ 16-02 - Orbit

View from above orbital plane
View from above orbital plane
View from above satellite
View from above satellite

Ground track
Ground track

The orbit data is extracted from the following two-line orbital elements,

1 41634U 16043A   21059.22721896  .00000268  00000-0  33927-4 0  9990
2 41634  75.0055 314.4491 0006425  40.8166 319.3499 14.85772586253225
Epoch (UTC): 28 February 2021 05:27:11
Eccentricity: 0.0006425
inclination: 75.0055°
perigee height: 606 km
apogee height: 615 km
right ascension of ascending node: 314.4491°
argument of perigee: 40.8166°
revolutions per day: 14.85772586
mean anomaly at epoch: 319.3499°
orbit number at epoch: 25322

The dashed part of the orbit path shows where the satellite is in the earth's shadow,  

DLR